Location: Eyeline Observatory
(43.2182°N, 78.8632°W)
Time: 03:20:21
(UTC-05:00)

Vanguard 2 - Pass Details

Date: 27 January 2018
Orbit: 553 x 2939 km, 32.9° (Epoch: 23 February)

Event Time Altitude Azimuth Distance (km) Brightness Sun altitude
Rises 01:23:39 0° 218° (SW) 3,078 - -62.6°
Reaches altitude 10° 01:26:09 10° 202° (SSW) 2,367 - -62.4°
Maximum altitude 01:30:29 23° 151° (SSE) 2,002 - -62.0°
Drops below altitude 10° 01:36:29 10° 103° (ESE) 3,414 - -61.3°
Exits shadow 01:39:22 - 95° (E) 4,341 11.5 -61.0°
Sets 01:40:59 0° 91° (E) 4,865 11.9 -60.9°
